{"data":{"norad_id":63245,"intl_designator":"2025-052AM","name":"BUCCANEER MM","alt_names":[],"object_type":"PAYLOAD","status":"ACTIVE","operator":null,"country":"AUS","launch_date":"2025-03-15","launch_site_code":"AFWTR","launch_vehicle":null,"mission":null,"orbit_class":"UNKNOWN","rcs_meters":null,"size_class":null,"mass_kg":null,"dimensions":null,"purposes":[],"wikipedia_slug":null,"has_3d_model":false,"image_url":null,"decayed_at":null,"tle_current":{"epoch":"2026-05-25T03:16:18.513696Z","epoch_age_seconds":57174,"freshness":"FRESH","line1":"1 63245U 25052AM  26145.13632539  .00001745  00000+0  16678-3 0  9991","line2":"2 63245  97.6899  36.6164 0002623 309.1480  50.9507 14.94528839 65150","mean_motion":14.94528839,"eccentricity":0.0002623,"inclination_deg":97.6899,"raan_deg":36.6164,"arg_perigee_deg":309.148,"mean_anomaly_deg":50.9507,"bstar":0.00016678,"rev_number":6515,"period_min":96.351436146492,"perigee_km":582.00944943137,"apogee_km":585.66170024413,"semimajor_km":6961.9725748378,"source":"CELESTRAK","updated_at":"2026-05-25T13:38:03.585368Z"}}}